This is the latest recevied weather packets stored in our database for station/object YACHTS. If no packets are shown the sender has not sent any weather packets the latest 1 day(s).
| Time | Temp. | Humidity | Pressure | Rain* | Wind** | Luminosity | Snow |
|---|---|---|---|---|---|---|---|
| 1778021816 | 11.67° C | 89% | 1016.3 hPa | 0 mm | 2.68 m/s, 327° | - | - |
| 1778021764 | 11.67° C | 89% | 1016.3 hPa | 0 mm | 2.68 m/s, 327° | - | - |
| 1778021451 | 11.67° C | 89% | 1016.4 hPa | 0 mm | 2.24 m/s, 289° | - | - |
| 1778021138 | 11.67° C | 89% | 1016.4 hPa | 0 mm | 2.24 m/s, 330° | - | - |
| 1778020825 | 11.67° C | 89% | 1016.4 hPa | 0 mm | 2.68 m/s, 295° | - | - |
| 1778020199 | 11.11° C | 89% | 1016.3 hPa | 0 mm | 2.68 m/s, 309° | - | - |
| 1778019886 | 11.67° C | 89% | 1016.4 hPa | 0 mm | 2.68 m/s, 327° | - | - |
| 1778019573 | 11.67° C | 89% | 1016.4 hPa | 0 mm | 2.68 m/s, 334° | - | - |
| 1778019260 | 11.67° C | 89% | 1016.5 hPa | 0 mm | 2.24 m/s, 320° | - | - |
| 1778018947 | 11.67° C | 90% | 1016.4 hPa | 0 mm | 0 m/s | - | - |
| 1778018634 | 11.67° C | 89% | 1016.4 hPa | 0 mm | 2.24 m/s, 306° | - | - |
| 1778018321 | 11.67° C | 89% | 1016.5 hPa | 0 mm | 0 m/s | - | - |
| 1778018008 | 11.67° C | 90% | 1016.7 hPa | 0 mm | 0 m/s | - | - |
| 1778017382 | 11.67° C | 90% | 1016.7 hPa | 0 mm | 2.68 m/s, 282° | - | - |
| 1778017069 | 11.11° C | 90% | 1016.8 hPa | 0 mm | 0 m/s | - | - |
| 1778016756 | 11.67° C | 90% | 1016.8 hPa | 0 mm | 0.89 m/s, 306° | - | - |
| 1778016443 | 11.11° C | 90% | 1016.8 hPa | 0 mm | 0.89 m/s, 289° | - | - |
| 1778016130 | 11.11° C | 90% | 1016.8 hPa | 0 mm | 1.79 m/s, 310° | - | - |
| 1778015504 | 11.11° C | 90% | 1016.7 hPa | 0 mm | 1.79 m/s, 278° | - | - |
| 1778015191 | 11.11° C | 90% | 1016.7 hPa | 0 mm | 0 m/s | - | - |
| 1778014879 | 11.11° C | 90% | 1016.7 hPa | 0 mm | 1.34 m/s, 267° | - | - |
| 1778014565 | 11.11° C | 90% | 1016.7 hPa | 0 mm | 2.24 m/s, 303° | - | - |
| 1778014252 | 11.11° C | 90% | 1016.8 hPa | 0 mm | 0 m/s | - | - |
| 1778013939 | 11.11° C | 90% | 1016.8 hPa | 0 mm | 1.34 m/s, 289° | - | - |
| 1778013626 | 11.11° C | 90% | 1016.9 hPa | 0 mm | 0 m/s | - | - |
* Rain latest hour (hover to see other rain measurements)
** Current wind speed in m/s (hover to see current wind gust speed)